User: anonymous
Location: Oshawa
(43.9000°N, 78.8670°W)
Time: 00:11:00
(UTC-04:00)
Language:

CARTOSAT-1 - Orbit

View from above orbital plane
View from above orbital plane
View from above satellite
View from above satellite

Ground track
Ground track

The orbit data is extracted from the following two-line orbital elements,

1 28649U 05017A   14208.80359753  .00000252  00000-0  36961-4 0  4440
2 28649 097.8322 282.0046 0001530 130.7786 229.3552 14.83473440499519
Epoch (UTC): 27 July 2014 19:17:10
Eccentricity: 0.0001530
inclination: 97.8322°
perigee height: 617 km
apogee height: 619 km
right ascension of ascending node: 282.0046°
argument of perigee: 130.7786°
revolutions per day: 14.83473440
mean anomaly at epoch: 229.3552°
orbit number at epoch: 49951

The dashed part of the orbit path shows where the satellite is in the earth's shadow,  

DLR